Location: Byszew
(52.1813°N, 19.2693°E)
Time: 05:28:18
(UTC+00:00)

SPROUT - Pass Details

Date: 05 July 2022
Orbit: 588 x 598 km, 97.9° (Epoch: 18 August)

Event Time Altitude Azimuth Distance (km) Brightness Sun altitude
Exits shadow 21:53:50 - 109° (ESE) 2,288 ? -14.2°
Reaches altitude 10° 21:55:03 10° 98° (E) 1,921 ? -14.2°
Maximum altitude 21:57:45 17° 58° (ENE) 1,519 ? -14.3°
Drops below altitude 10° 22:00:28 10° 17° (NNE) 1,933 ? -14.4°
Sets 22:03:14 0° 358° (N) 2,842 ? -14.5°
